Погода в Ордо-Василевке

Украина / Днепропетровская область     48°11′40″N   33°42′24″E
темп.,
°C
ветер,
м/с
пор.,
м/с
влажн.,
%
обл.,
%
осадки,
мм/ч
давл.,
гПа
погр.,
м
16 мая, вс
вс1600:00+14з22740 0.0 101315
03:00+13ю11761 0.0 101310
06:00+14с1176100 0.0 101210
09:00+19всв235833 0.0 1012359
12:00+24в444566 0.0 10111697
15:00+25всв5539100 0.0 10092030
18:00+24св4650100 0.0 1008433
21:00+19ссв51170100 0.1 1007196
17 мая, пн
пн1700:00+17ссв71289100 4.3 1004249
03:00+16ссв3591100 4.3 1004116
06:00+16ссз469157 0.0 1001122
09:00+20юв227092 0.0 1002410
12:00+23юв556471 0.1 10021180
15:00+23ююв8964100 0.3 10021475
18:00+21ююв810675 0.1 10021222
21:00+16ю8138033 0.1 1005831
18 мая, вт
вт1800:00+14ю6128993 0.0 1006497
03:00+13ююз41191100 0.0 1006303
06:00+13ююв4989100 0.0 1007251
09:00+18ююв796913 0.0 1007750
12:00+21ююв8105746 0.0 10051432
15:00+16ююз71285100 1.8 1006832
18:00+16ю61188100 0.9 1004703
21:00+14ю5109296 2.3 1004286
19 мая, ср
ср1900:00+12ююз5119313 0.1 1004323
03:00+11юз589371 0.1 1004521
06:00+10ююз5994100 0.1 1005497
09:00+11ююз6993100 0.1 1005762
12:00+12юз71094100 1.8 1005794
15:00+12зюз81291100 4.2 1007969
18:00+11зюз81492100 2.4 1009707
21:00+11зюз514905 2.6 1010408
20 мая, чт
чт2000:00+10юз512930 0.0 1011287
03:00+9юз35935 0.0 101280
06:00+9юз239199 0.0 101369
09:00+15ююз2369100 0.0 1012488
12:00+19ююв3456100 0.0 10121025
15:00+21вюв4549100 0.0 10101785
18:00+20вюв5953100 0.0 10081562
21:00+16юв2675100 0.1 1008125